Location: Blanot
(47.1713°N, 4.2340°E)
Time: 13:59:40
(UTC+00:00)

X-37B - Pass Details

Date: 12 March 2021
Orbit: 380 x 394 km, 45.0° (Epoch: 07 April)

Event Time Altitude Azimuth Distance (km) Brightness Sun altitude
Rises 19:52:13 0° 240° (WSW) 2,269 5.0 -22.1°
Reaches altitude 10° 19:54:21 10° 232° (SW) 1,419 3.8 -22.5°
Enters shadow 19:55:24 18° 223° (SW) 1,033 2.9 -22.6°
